Wind_Speed
13 13 20 30 32 38 45 43 41 39 39 37 38 36 33 31 28 26 23 20 19 17 16 15 15 16 16 17 17 17 17 17 19 21 20 20 21 22 23 23 24 27 24 24 28
15 16 18 25 33 35 40 45 45 44 41 40 39 40 37 34 32 30 27 24 22 21 19 18 17 16 17 18 18 21 23 24 24 25 26 26 28 29 29 29 30 29 30 27 26
15 18 19 22 30 36 37 41 46 47 45 42 41 42 41 38 37 34 32 28 26 26 24 23 23 22 22 21 23 25 26 28 30 31 32 33 34 34 35 35 34 34 32 31 28
18 19 21 24 29 35 39 39 44 48 49 47 44 43 43 42 40 37 36 35 31 30 28 28 27 25 26 28 28 29 31 33 35 35 35 36 37 38 40 39 38 37 36 35 31
21 20 21 23 28 33 38 40 41 46 49 50 48 46 44 43 42 40 38 38 37 35 35 34 33 33 33 33 34 35 36 38 39 40 41 41 43 42 43 43 43 41 39 37 34
21 18 19 21 25 31 36 40 41 42 47 50 50 49 47 46 45 43 42 41 41 40 39 38 37 38 39 39 39 39 39 40 42 44 45 45 45 46 46 47 46 44 43 39 36
21 16 17 19 22 27 31 36 40 40 42 45 49 50 50 49 46 45 44 43 43 41 40 41 40 40 42 43 43 43 43 43 44 46 48 48 48 48 49 48 47 44 41 39 37
21 16 17 19 21 24 27 32 35 37 37 40 42 48 49 49 49 48 47 46 44 43 43 43 43 44 44 44 45 46 46 46 45 46 46 46 44 42 39 38 36 36 34 33 33
20 16 17 18 19 20 23 28 31 32 33 34 36 38 41 46 47 47 47 46 45 44 44 45 44 43 45 45 44 43 41 39 36 35 34 34 35 34 33 31 29 27 26 27 28
19 16 17 18 19 21 22 24 26 27 27 28 29 31 33 33 37 41 44 44 44 43 43 43 42 41 37 34 31 30 28 27 25 21 21 22 23 23 25 26 26 25 23 22 23
19 16 19 20 20 20 22 22 23 22 24 24 24 25 25 27 28 30 32 33 35 35 33 31 25 22 21 20 18 13 12 12 13 14 17 18 18 18 17 19 21 21 20 20 20
18 19 21 22 21 20 20 21 21 21 21 21 22 22 23 23 23 22 20 19 19 18 18 15 13 11 10 10 9 12 12 12 16 16 15 16 16 17 16 15 16 18 18 18 18
17 23 23 25 21 19 20 20 19 19 20 19 20 21 21 19 17 17 17 17 14 15 13 13 11 9 10 9 10 14 13 15 18 19 18 15 16 16 17 17 15 16 15 15 18
19 25 26 26 22 19 19 19 20 20 20 21 21 21 19 18 18 20 21 20 19 18 15 12 9 7 9 10 12 15 16 16 17 20 21 21 17 16 15 16 18 19 16 16 16
24 25 29 25 22 20 21 21 21 20 21 22 21 19 20 21 22 22 21 21 18 15 12 10 9 7 9 11 13 15 18 19 19 20 21 26 23 19 18 19 18 19 19 16 12
28 26 27 24 23 23 21 21 21 21 22 21 20 20 21 24 24 23 21 18 15 12 11 9 10 10 12 13 14 15 16 16 17 18 19 27 26 24 23 22 21 22 21 22 19
29 28 26 24 24 22 20 20 23 23 21 20 20 23 23 22 22 21 19 17 15 13 12 12 13 13 14 17 18 18 18 18 18 19 20 26 27 26 26 27 25 24 23 25 25
29 30 27 25 23 22 22 24 24 24 23 24 24 24 24 23 21 19 17 15 14 14 14 15 18 20 19 23 22 22 23 23 26 23 25 29 31 29 29 30 30 29 25 23 26
30 30 28 24 23 24 26 26 26 25 25 25 24 25 25 22 19 16 15 15 15 17 19 22 24 27 27 30 29 27 27 26 28 30 31 31 34 32 29 30 33 32 29 26 26
29 27 24 24 24 25 27 28 26 26 25 24 24 23 22 22 20 19 19 19 20 23 26 29 32 31 33 35 35 34 34 30 28 33 35 35 35 34 30 30 30 35 33 30 27
26 26 25 26 28 28 27 28 26 25 24 24 24 24 23 21 21 22 23 25 27 29 32 35 39 39 37 37 40 39 36 36 34 35 36 38 37 34 31 31 34 36 38 37 32
26 26 27 28 27 25 25 26 24 23 23 23 24 25 25 25 27 28 29 31 34 36 36 37 38 46 47 45 44 43 42 41 42 41 40 38 37 39 37 36 38 39 39 40 39
26 26 27 27 25 26 26 24 23 22 21 24 26 28 29 30 32 33 35 37 39 41 42 43 42 43 51 55 53 49 47 48 48 46 43 41 39 46 43 42 42 41 41 41 42
24 24 24 24 25 25 24 21 21 21 23 24 27 29 30 33 35 38 40 42 43 44 46 46 47 49 49 50 56 59 58 55 51 47 46 44 46 48 50 50 48 47 46 46 45
23 23 23 23 24 25 25 25 25 26 27 29 30 32 36 38 40 42 44 46 47 50 50 50 51 51 51 53 54 55 55 57 56 56 54 55 55 56 56 57 56 54 53 50 49
23 23 24 24 25 26 26 26 28 31 32 33 34 37 41 43 45 46 47 47 50 52 53 53 51 55 57 57 55 54 57 59 62 64 63 63 63 63 64 61 60 60 58 59 55
27 27 27 28 28 29 29 30 32 33 35 37 40 42 44 46 48 49 50 52 53 56 58 59 59 55 55 58 61 61 63 66 69 71 71 69 65 65 67 67 67 65 63 63 63
Wind_Direction
272 254 232 222 220 219 219 216 215 215 215 213 212 212 210 208 211 219 224 222 223 226 230 232 237 242 247 257 263 263 260 259 258 264 271 276 283 290 296 301 303 306 310 297 305
275 261 244 228 222 221 219 218 216 217 216 216 215 214 215 216 217 219 225 228 231 233 236 238 241 242 243 249 255 258 258 260 266 274 281 282 284 288 291 295 299 302 305 302 298
279 267 255 238 228 221 220 218 217 217 217 218 218 217 218 221 225 228 228 230 234 237 240 243 245 246 250 253 258 264 267 269 270 271 274 277 280 283 286 289 292 296 297 298 302
292 274 259 245 233 225 219 219 219 218 218 218 219 220 221 222 225 228 232 235 239 243 246 248 251 255 260 263 264 266 268 269 270 272 278 280 279 281 283 285 287 290 287 290 293
298 279 263 249 235 227 222 219 218 219 219 219 221 222 223 226 228 231 235 239 244 247 251 253 255 261 266 270 274 277 279 280 281 279 281 285 285 284 283 282 283 284 283 284 284
306 283 263 244 234 228 222 220 219 219 220 221 222 223 226 228 231 233 236 241 246 251 255 259 263 268 272 276 278 281 282 282 283 283 283 283 283 284 284 283 282 281 280 280 277
309 282 259 244 232 225 220 219 220 220 220 221 224 224 226 229 233 236 239 243 247 252 257 261 264 268 273 277 279 280 280 280 281 283 284 284 283 282 282 283 283 280 278 277 273
306 279 255 239 230 223 217 214 216 219 220 222 224 227 228 230 234 238 241 244 248 253 258 263 266 270 273 275 277 280 282 282 282 282 282 283 282 282 282 282 283 281 277 273 266
300 276 244 228 224 215 209 207 211 215 219 222 224 226 230 232 235 239 242 245 248 253 258 264 267 272 275 278 280 280 280 281 279 279 281 283 284 285 285 285 282 281 279 275 269
294 267 226 218 213 206 201 201 203 207 212 219 226 230 230 233 235 240 244 247 251 254 259 263 267 270 273 274 276 279 280 280 284 286 288 294 298 299 294 288 284 280 279 276 269
285 244 212 207 202 198 195 196 199 201 205 208 211 218 221 225 231 236 242 245 250 252 253 258 260 259 264 272 282 294 294 302 299 294 296 302 311 316 325 314 299 288 282 279 273
267 219 205 202 196 195 188 189 192 195 198 202 206 207 212 216 221 224 227 224 226 230 235 240 237 243 253 263 277 278 292 297 294 298 302 304 301 305 308 313 326 316 300 288 278
248 203 201 196 190 186 186 189 190 190 189 190 190 193 196 200 193 188 195 195 188 191 191 196 203 215 238 260 276 281 287 286 293 294 295 293 295 301 305 312 316 313 320 303 285
222 197 196 194 187 177 173 175 176 182 181 188 189 191 189 190 182 174 173 166 173 179 181 189 205 232 266 283 291 293 295 295 292 295 299 295 298 304 306 305 305 307 313 314 311
202 192 188 191 182 175 178 178 176 179 183 187 188 185 178 173 168 169 168 165 175 179 191 208 229 256 286 297 301 304 305 308 307 304 297 295 298 298 299 294 297 299 303 303 307
190 190 184 181 174 171 176 175 176 180 186 183 179 175 175 171 171 172 170 172 182 201 217 242 268 282 291 295 302 308 305 307 304 297 295 294 297 302 296 297 292 292 293 294 292
188 185 183 179 174 172 175 175 175 178 179 179 182 179 175 176 173 174 180 191 203 223 241 258 275 288 303 304 303 310 303 292 289 296 296 294 297 300 300 297 291 286 285 290 292
180 180 180 178 169 171 176 173 176 181 182 182 185 180 181 179 183 190 202 216 234 247 260 278 290 295 300 303 300 302 302 296 296 300 299 295 296 293 290 290 289 286 281 276 280
176 178 181 173 172 174 173 177 185 185 184 187 192 186 187 188 196 212 227 246 262 273 284 290 291 297 303 302 300 299 300 297 295 299 300 297 296 292 288 286 288 288 285 281 277
174 177 177 172 174 177 182 186 187 187 189 198 200 195 198 203 214 230 246 258 271 280 287 291 294 297 299 299 298 300 300 296 292 297 299 298 293 291 288 283 280 284 284 281 276
175 175 177 176 179 185 192 187 189 193 202 206 209 212 214 224 236 250 261 271 277 284 287 290 292 292 292 291 293 295 295 293 291 292 295 293 288 284 281 279 278 279 283 284 280
174 175 176 180 185 193 194 193 198 208 215 217 220 225 231 237 247 258 267 271 273 276 282 287 292 295 293 292 291 292 292 291 293 292 292 287 282 281 278 275 276 278 279 281 281
175 177 181 185 191 201 205 207 212 220 227 231 234 238 243 249 256 264 271 278 284 287 289 290 291 289 294 294 294 293 292 293 292 291 288 285 279 281 279 279 277 276 275 275 277
181 186 190 194 199 209 220 228 235 239 241 243 247 252 259 265 270 274 277 279 281 281 282 282 283 285 286 287 294 296 295 292 289 285 282 282 279 279 281 280 277 274 272 271 270
194 196 198 205 213 219 226 235 242 247 252 254 258 262 264 266 269 272 276 279 281 282 283 284 285 285 284 284 286 287 288 289 289 289 289 286 284 280 278 276 276 273 271 268 267
211 215 219 225 230 235 238 243 249 254 257 262 265 268 271 274 276 278 280 280 282 282 284 285 284 287 288 287 285 284 283 284 286 287 286 283 282 281 279 275 272 270 268 267 263
225 229 233 236 239 243 246 249 254 257 262 267 269 273 275 278 280 281 283 285 287 289 290 289 289 288 286 286 288 286 285 286 287 287 285 285 282 277 276 275 272 268 265 262 262
Height
10906 10906 10908 10911 10915 10919 10925 10932 10938 10943 10948 10953 10958 10963 10968 10972 10975 10977 10979 10981 10983 10985 10988 10990 10992 10994 10996 10997 10997 10997 10998 10999 10999 10999 11000 10999 10998 10998 10998 10998 10997 10994 10994 10994 10993
10902 10903 10904 10906 10909 10913 10918 10925 10932 10937 10943 10948 10953 10959 10964 10968 10971 10973 10976 10979 10981 10983 10985 10988 10990 10991 10993 10995 10996 10995 10995 10995 10996 10995 10995 10995 10994 10993 10993 10994 10993 10991 10990 10991 10991
10899 10898 10900 10901 10904 10907 10912 10918 10924 10931 10937 10942 10948 10953 10959 10963 10966 10970 10972 10975 10977 10979 10982 10984 10986 10989 10991 10992 10992 10992 10992 10992 10991 10991 10991 10990 10988 10988 10987 10988 10988 10987 10986 10986 10987
10894 10893 10893 10895 10897 10900 10906 10911 10917 10923 10930 10936 10942 10948 10954 10958 10962 10965 10968 10971 10973 10975 10977 10979 10982 10984 10985 10987 10988 10988 10988 10987 10987 10987 10986 10985 10984 10983 10982 10982 10983 10983 10982 10980 10982
10888 10887 10887 10887 10889 10893 10899 10904 10910 10916 10922 10929 10936 10942 10948 10953 10957 10961 10964 10966 10968 10970 10972 10974 10978 10979 10979 10980 10981 10982 10982 10980 10979 10979 10978 10977 10974 10974 10974 10974 10975 10976 10975 10974 10975
10882 10881 10880 10881 10883 10887 10891 10897 10903 10908 10915 10922 10929 10936 10942 10946 10951 10955 10958 10961 10963 10965 10967 10969 10972 10972 10972 10974 10974 10975 10976 10974 10972 10969 10969 10969 10967 10965 10964 10963 10964 10965 10965 10966 10967
10877 10876 10875 10876 10878 10881 10886 10891 10896 10902 10909 10915 10921 10928 10935 10940 10944 10949 10952 10955 10957 10960 10962 10963 10966 10967 10966 10967 10967 10968 10968 10968 10965 10962 10959 10958 10957 10957 10954 10953 10952 10954 10955 10956 10958
10872 10871 10871 10872 10874 10877 10881 10885 10891 10897 10902 10908 10914 10921 10927 10933 10937 10942 10945 10949 10952 10955 10956 10957 10959 10960 10961 10960 10960 10960 10960 10959 10957 10953 10950 10948 10947 10945 10944 10944 10945 10944 10946 10947 10950
10868 10867 10867 10868 10871 10873 10877 10881 10887 10892 10897 10903 10908 10914 10920 10926 10931 10935 10938 10943 10946 10950 10951 10951 10952 10954 10952 10952 10952 10952 10950 10949 10948 10945 10943 10940 10938 10937 10937 10936 10937 10937 10938 10939 10941
10863 10863 10864 10866 10868 10871 10874 10879 10884 10890 10895 10899 10904 10910 10915 10920 10924 10928 10932 10937 10940 10944 10945 10945 10947 10948 10946 10945 10944 10945 10944 10943 10941 10940 10937 10935 10933 10932 10930 10929 10929 10930 10931 10932 10933
10859 10859 10861 10863 10866 10869 10874 10878 10883 10888 10892 10897 10901 10905 10910 10914 10919 10923 10927 10931 10934 10937 10937 10939 10941 10940 10941 10941 10941 10940 10938 10938 10937 10936 10935 10932 10930 10928 10926 10923 10922 10923 10924 10926 10926
10854 10855 10858 10861 10864 10868 10873 10877 10881 10886 10890 10894 10898 10902 10905 10910 10915 10920 10923 10926 10929 10931 10933 10935 10937 10938 10938 10939 10938 10936 10935 10935 10932 10931 10932 10930 10927 10925 10924 10922 10919 10918 10919 10921 10922
10850 10852 10855 10859 10863 10868 10872 10876 10881 10884 10888 10892 10896 10899 10904 10908 10912 10917 10920 10923 10927 10929 10932 10933 10935 10936 10936 10936 10935 10934 10933 10932 10929 10927 10926 10926 10924 10923 10921 10918 10917 10915 10915 10916 10916
10845 10849 10853 10857 10862 10867 10871 10876 10880 10883 10887 10890 10894 10898 10903 10906 10910 10913 10916 10921 10923 10925 10928 10930 10932 10933 10933 10934 10933 10931 10929 10928 10926 10923 10920 10919 10921 10919 10918 10915 10913 10912 10912 10912 10911
10842 10847 10851 10856 10861 10866 10871 10874 10879 10882 10886 10889 10893 10897 10900 10904 10907 10911 10915 10918 10921 10924 10926 10927 10928 10930 10930 10930 10929 10928 10926 10924 10922 10920 10916 10911 10913 10914 10914 10911 10911 10909 10907 10908 10908
10840 10845 10850 10856 10861 10866 10870 10874 10878 10882 10884 10888 10892 10896 10899 10902 10905 10909 10913 10916 10918 10920 10922 10924 10926 10927 10927 10926 10925 10924 10922 10921 10919 10917 10914 10907 10908 10908 10906 10907 10906 10904 10903 10901 10902
10839 10844 10850 10856 10861 10866 10870 10873 10877 10881 10884 10888 10891 10894 10898 10902 10906 10910 10912 10915 10917 10918 10920 10922 10922 10923 10923 10921 10920 10920 10918 10916 10915 10913 10910 10903 10903 10903 10900 10899 10899 10901 10900 10897 10896
10838 10844 10850 10856 10861 10865 10869 10873 10877 10880 10883 10886 10888 10892 10897 10901 10905 10908 10911 10913 10914 10915 10917 10917 10917 10917 10917 10915 10915 10915 10913 10911 10907 10907 10905 10900 10897 10898 10894 10891 10890 10892 10894 10894 10891
10837 10844 10849 10856 10861 10864 10868 10871 10874 10878 10882 10885 10888 10893 10896 10900 10904 10906 10908 10910 10910 10911 10912 10911 10911 10910 10910 10908 10907 10908 10907 10906 10902 10899 10896 10895 10889 10889 10890 10885 10881 10881 10883 10885 10886
10838 10845 10851 10856 10859 10863 10866 10869 10873 10878 10881 10884 10888 10893 10897 10900 10902 10903 10904 10905 10906 10907 10906 10905 10903 10904 10902 10899 10898 10898 10897 10897 10896 10893 10889 10886 10883 10880 10880 10879 10876 10870 10872 10874 10876
10840 10845 10850 10854 10857 10860 10864 10869 10873 10877 10880 10884 10887 10890 10894 10896 10897 10898 10899 10900 10900 10901 10900 10899 10895 10894 10894 10893 10890 10889 10888 10886 10886 10885 10883 10877 10873 10872 10872 10870 10867 10864 10862 10863 10866
10841 10845 10849 10853 10857 10861 10865 10869 10873 10877 10879 10882 10885 10888 10890 10891 10892 10893 10893 10894 10894 10894 10893 10892 10889 10879 10878 10880 10879 10878 10877 10876 10875 10874 10873 10871 10865 10861 10861 10861 10858 10856 10855 10853 10853
10840 10845 10849 10853 10857 10859 10862 10867 10871 10875 10878 10880 10881 10883 10884 10886 10886 10885 10885 10884 10883 10883 10882 10879 10879 10876 10865 10860 10861 10864 10864 10862 10861 10860 10860 10859 10857 10847 10848 10849 10849 10848 10846 10845 10843
10841 10845 10849 10853 10856 10859 10862 10866 10868 10871 10873 10874 10875 10876 10876 10877 10877 10876 10875 10874 10874 10873 10872 10871 10868 10865 10863 10856 10846 10841 10842 10844 10844 10846 10846 10846 10842 10838 10835 10834 10836 10835 10834 10835 10834
10841 10844 10848 10851 10854 10857 10860 10863 10864 10865 10865 10867 10868 10869 10868 10868 10868 10868 10867 10865 10864 10860 10858 10858 10855 10853 10848 10846 10844 10839 10830 10824 10826 10824 10827 10825 10825 10822 10820 10819 10818 10819 10820 10821 10821
10838 10842 10845 10848 10850 10853 10856 10857 10858 10858 10859 10860 10860 10859 10858 10858 10857 10856 10855 10854 10850 10847 10844 10842 10842 10838 10832 10828 10827 10825 10819 10815 10808 10807 10810 10809 10807 10803 10798 10800 10800 10801 10804 10803 10805
10835 10837 10840 10842 10845 10847 10849 10851 10850 10851 10851 10851 10851 10849 10848 10846 10844 10842 10841 10839 10835 10830 10826 10824 10821 10820 10817 10811 10808 10806 10800 10795 10790 10787 10785 10783 10785 10781 10776 10777 10778 10780 10782 10784 10785